TimeCDT,TemperatureF,Dew PointF,Humidity,Sea Level PressureIn,VisibilityMPH,Wind Direction,Wind SpeedMPH,Gust SpeedMPH,PrecipitationIn,Events,Conditions,WindDirDegrees,DateUTC
12:48 AM,39.2,35.6,87,30.25,6.0,North,26.5,39.1,0.00,Rain,Light Rain,360,2013-05-02 05:48:00
12:53 AM,39.0,36.0,89,30.23,7.0,North,28.8,42.6,0.00,Rain,Light Rain,360,2013-05-02 05:53:00
1:30 AM,37.4,35.6,93,30.28,4.0,North,27.6,41.4,0.00,Snow,Light Snow,350,2013-05-02 06:30:00
1:53 AM,37.9,36.0,93,30.26,4.0,North,23.0,41.4,0.00,Snow,Light Snow,350,2013-05-02 06:53:00
2:10 AM,37.4,35.6,93,30.29,5.0,North,32.2,41.4,0.00,Snow,Light Snow,350,2013-05-02 07:10:00
2:50 AM,37.4,35.6,93,30.30,5.0,North,23.0,41.4,0.00,Snow,Light Snow,350,2013-05-02 07:50:00
2:53 AM,37.0,35.1,93,30.28,5.0,North,29.9,39.1,0.00,Snow,Light Snow,350,2013-05-02 07:53:00
3:34 AM,37.4,35.6,93,30.30,5.0,North,25.3,42.6,0.00,Snow,Light Snow,360,2013-05-02 08:34:00
3:53 AM,37.0,35.1,93,30.30,5.0,North,29.9,41.4,0.00,Snow,Light Snow,360,2013-05-02 08:53:00
3:56 AM,37.4,35.6,93,30.30,6.0,North,29.9,40.3,0.00,Snow,Light Snow,360,2013-05-02 08:56:00
4:05 AM,37.4,35.6,93,30.31,6.0,North,33.4,41.4,0.00,Snow,Light Snow,360,2013-05-02 09:05:00
4:31 AM,37.4,35.6,93,30.33,6.0,North,27.6,41.4,0.00,Rain-Thunderstorm,Rain,350,2013-05-02 09:31:00
4:53 AM,37.0,35.1,93,30.32,4.0,North,31.1,40.3,0.03,Rain,Heavy Rain,360,2013-05-02 09:53:00
5:09 AM,37.4,35.6,93,30.36,9.0,NNW,26.5,34.5,0.02,Rain-Thunderstorm,Light Rain,340,2013-05-02 10:09:00
5:46 AM,37.4,33.8,87,30.35,8.0,North,29.9,42.6,0.07,Snow,Light Snow,360,2013-05-02 10:46:00
5:53 AM,37.0,34.0,89,30.35,9.0,North,31.1,39.1,0.07,Rain,Light Rain,360,2013-05-02 10:53:00
6:22 AM,37.4,33.8,87,30.35,10.0,North,32.2,41.4,0.00,,Overcast,360,2013-05-02 11:22:00
6:53 AM,37.0,34.0,89,30.37,10.0,North,34.5,46.0,0.00,,Overcast,360,2013-05-02 11:53:00
7:18 AM,37.4,33.8,87,30.37,10.0,North,31.1,46.0,N/A,,Overcast,360,2013-05-02 12:18:00
7:45 AM,37.4,33.8,87,30.42,10.0,North,34.5,44.9,N/A,Thunderstorm,Overcast,360,2013-05-02 12:45:00
7:53 AM,37.0,34.0,89,30.43,9.0,North,33.4,44.9,0.00,Rain-Thunderstorm,Light Rain,10,2013-05-02 12:53:00
8:00 AM,37.4,33.8,87,30.38,4.0,North,34.5,40.3,0.02,Rain,Heavy Rain,10,2013-05-02 13:00:00
8:44 AM,35.6,33.8,93,30.41,10.0,North,31.1,40.3,0.03,Rain,Light Rain,350,2013-05-02 13:44:00
8:53 AM,36.0,33.1,89,30.45,7.0,North,25.3,41.4,0.04,Rain,Light Rain,350,2013-05-02 13:53:00
9:15 AM,35.6,33.8,93,30.43,10.0,North,29.9,39.1,0.00,Rain,Light Rain,350,2013-05-02 14:15:00
9:51 AM,37.4,33.8,87,30.43,10.0,North,33.4,44.9,0.00,,Overcast,360,2013-05-02 14:51:00
9:53 AM,37.0,34.0,89,30.45,10.0,North,34.5,44.9,0.00,,Overcast,360,2013-05-02 14:53:00
10:53 AM,37.0,33.1,86,30.48,10.0,North,41.4,55.2,N/A,,Overcast,360,2013-05-02 15:53:00
11:53 AM,39.9,33.1,77,30.48,10.0,North,38.0,49.5,N/A,,Overcast,360,2013-05-02 16:53:00
12:53 PM,42.1,32.0,67,30.49,10.0,North,41.4,51.8,N/A,,Overcast,10,2013-05-02 17:53:00
1:25 PM,42.8,33.8,70,30.47,10.0,North,29.9,49.5,N/A,,Unknown,360,2013-05-02 18:25:00
1:53 PM,45.0,34.0,65,30.49,10.0,North,36.8,46.0,N/A,,Mostly Cloudy,360,2013-05-02 18:53:00
2:53 PM,48.0,32.0,54,30.48,10.0,North,-9999.0,-,N/A,,Overcast,0,2013-05-02 19:53:00
2:59 PM,48.2,30.2,50,30.46,10.0,North,36.8,44.9,N/A,,Overcast,10,2013-05-02 19:59:00
3:53 PM,52.0,30.9,45,30.46,10.0,North,36.8,44.9,N/A,,Mostly Cloudy,10,2013-05-02 20:53:00
4:50 PM,50.0,28.4,43,30.44,10.0,North,28.8,42.6,N/A,,Mostly Cloudy,10,2013-05-02 21:50:00
4:53 PM,50.0,28.9,44,30.45,10.0,North,28.8,42.6,N/A,,Mostly Cloudy,10,2013-05-02 21:53:00
5:53 PM,48.9,26.1,41,30.45,10.0,North,21.9,32.2,N/A,,Scattered Clouds,360,2013-05-02 22:53:00
6:53 PM,48.9,26.1,41,30.44,10.0,North,-9999.0,-,N/A,,Scattered Clouds,0,2013-05-02 23:53:00
7:53 PM,48.0,26.1,42,30.45,10.0,North,-9999.0,-,N/A,,Clear,0,2013-05-03 00:53:00
8:53 PM,44.1,28.0,53,30.46,10.0,North,-9999.0,-,N/A,,Clear,0,2013-05-03 01:53:00
9:53 PM,41.0,30.0,65,30.46,-9999.0,North,11.5,-,N/A,,Unknown,350,2013-05-03 02:53:00
10:53 PM,37.9,30.0,73,30.47,10.0,NNW,8.1,-,N/A,,Unknown,340,2013-05-03 03:53:00
11:53 PM,37.0,30.0,76,30.46,-9999.0,North,-9999.0,-,N/A,,Unknown,0,2013-05-03 04:53:00